Miscellaneous Local Product
Issued by NWS Hastings, NE

Home | Current Version | Previous Version | Graphics & Text | Print | Product List | Glossary On
Versions: 1 2 3 4 5 6 7 8 9 10 11 12 13 14 15 16 17 18 19 20 21 22 23 24 25 26 27 28 29 30 31 32 33 34 35 36 37 38 39 40 41 42 43 44 45 46 47 48 49 50
000
AXUS43 KGID 020702
MISGRI

GID CWA HOURLY WEATHER ROUNDUP
NATIONAL WEATHER SERVICE HASTINGS NE
100 AM CST MON MAR 02 2015

NOTE: "FAIR" INDICATES FEW OR NO CLOUDS BELOW 12,000 FEET WITH NO
SIGNIFICANT WEATHER AND/OR OBSTRUCTIONS TO VISIBILITY.

...SOUTH CENTRAL NEBRASKA...

CITY           SKY/WX    TMP DP  RH WIND       PRES   REMARKS
GRAND ISLAND   MOCLDY    24  16  71 CALM      30.44S
HASTINGS       CLOUDY    29  11  47 E7        30.43R WCI  22
KEARNEY        MOCLDY    27  10  50 CALM      30.43R
ORD            PTCLDY    15   7  70 CALM      30.42R
YORK           CLOUDY    25  16  68 NE6       30.46R WCI  18
AURORA         CLOUDY    26  13  55 E3        30.44R
LEXINGTON      PTCLDY    25  13  62 E8        30.41S WCI  16
HOLDREGE       MOCLDY    26  12  56 E3        30.41R
HEBRON         CLOUDY    27  20  75 CALM      30.46S

...NEBRASKA PANHANDLE...

CITY           SKY/WX    TMP DP  RH WIND       PRES   REMARKS
CHADRON        MOCLDY    23  12  62 SE8       30.24F WCI  14
ALLIANCE       MOCLDY    23  13  65 SE12      30.23F WCI  12
SCOTTSBLUFF    MOCLDY    26  16  65 SE7       30.22F WCI  18
SIDNEY         PTCLDY    24  18  77 S8        30.24F WCI  15

...WESTERN AND NORTH CENTRAL NEBRASKA...

CITY           SKY/WX    TMP DP  RH WIND       PRES   REMARKS
VALENTINE      MOCLDY    16  10  77 CALM      30.35F
AINSWORTH      PTCLDY    16  10  78 S5        30.36F WCI   9
ONEILL         PTCLDY    20   9  62 CALM      30.41S
BROKEN BOW     PTCLDY    18  10  71 CALM      30.40R
IMPERIAL         N/A     25  16  68 SE5       30.31F WCI  19
NORTH PLATTE   PTCLDY    22  13  68 E7        30.36F WCI  13
MCCOOK         CLOUDY    32  16  51 S6        30.37S WCI  26

...EASTERN NEBRASKA...

CITY           SKY/WX    TMP DP  RH WIND       PRES   REMARKS
NORFOLK        CLEAR     16  10  77 SE5       30.45R WCI   9
SO SIOUX CITY  FAIR      17  12  80 CALM      30.49R
TEKAMAH        CLEAR     18  12  77 NW5       30.49S WCI  11
COLUMBUS       MOCLDY    18   5  57 CALM      30.48R
ALBION         FAIR      12   5  73 CALM      30.44R
OMAHA EPPLEY   CLOUDY    22  17  81 CALM      30.49R
OFFUTT AFB     MOCLDY    23  19  84 N5        30.48S WCI  16
MILLARD        MOCLDY    24  18  77 CALM      30.49R
LINCOLN        CLOUDY    24  16  71 CALM      30.50R
NEBRASKA CITY  MOCLDY    28  13  52 NW3       30.47R
BEATRICE       CLOUDY    26  19  76 CALM      30.47R
FALLS CITY     PTCLDY    26  20  77 CALM      30.49R

...NORTHERN KANSAS...

CITY           SKY/WX    TMP DP  RH WIND       PRES   REMARKS
GOODLAND       CLOUDY    29  20  69 S8        30.32F WCI  21
HILL CITY      CLOUDY    30  21  69 SW3       30.42S
NORTON         CLOUDY    30  18  59 SW5       30.38  WCI  25
PHILLIPSBURG   CLOUDY    34  25  69 CALM      30.43F
SMITH CENTER   CLOUDY    28  21  74 CALM      30.44F
BELOIT         CLOUDY    30  25  80 CALM      30.46S
HAYS           PTCLDY    25  12  58 CALM      30.44R
RUSSELL        PTCLDY    21  18  88 S6        30.43F WCI  13
CONCORDIA      CLOUDY    31  22  69 SW3       30.47R
SALINA         PTCLDY    22  17  81 CALM      30.49R
TOPEKA         CLEAR     22  19  89 CALM      30.52R



USA.gov is the U.S. government's official web portal to all federal, state and local government web resources and services.